• In Uzbekistan
  • List of Countries
  • For 7 days
  • Water Temperature
  • Satellite Maps
  • Weather Map
  • Weather Widgets
  • user-avatar
    Login

    Hourly Weather Albany

    Today, 19 January, Thursday

    Time Temperature Precipitation Wind Pressure Humidity
    00:00 +19°C° 0 mm 4 mps 751 mmHg 75%
    01:00 +19°C° 0 mm 4 mps 751 mmHg 76%
    02:00 +19°C° 0 mm 5 mps 751 mmHg 77%
    03:00 +17°C° 0 mm 6 mps 751 mmHg 75%
    04:00 +17°C° 0 mm 7 mps 752 mmHg 74%
    05:00 +17°C° 0 mm 8 mps 752 mmHg 73%
    06:00 +17°C° 0 mm 7 mps 752 mmHg 69%
    07:00 +18°C° 0 mm 7 mps 753 mmHg 66%
    08:00 +18°C° 0 mm 7 mps 753 mmHg 63%
    09:00 +20°C° 0 mm 7 mps 753 mmHg 59%
    10:00 +21°C° 0 mm 7 mps 754 mmHg 55%
    11:00 +22°C° 0 mm 7 mps 754 mmHg 52%
    12:00 +22°C° 0 mm 7 mps 754 mmHg 51%
    13:00 +22°C° 0 mm 7 mps 754 mmHg 51%
    14:00 +22°C° 0 mm 7 mps 754 mmHg 50%
    15:00 +21°C° 0 mm 7 mps 754 mmHg 51%
    16:00 +21°C° 0 mm 6 mps 754 mmHg 53%
    17:00 +20°C° 0 mm 6 mps 754 mmHg 55%
    18:00 +19°C° 0 mm 5 mps 754 mmHg 59%
    19:00 +17°C° 0 mm 5 mps 754 mmHg 64%
    20:00 +17°C° 0 mm 4 mps 755 mmHg 69%
    21:00 +16°C° 0 mm 3 mps 755 mmHg 71%
    22:00 +16°C° 0 mm 3 mps 755 mmHg 73%
    23:00 +16°C° 0 mm 2 mps 756 mmHg 75%

    Tomorrow, 20 January, Friday

    Time Temperature Precipitation Wind Pressure Humidity
    00:00 +16°C° 0 mm 2 mps 756 mmHg 75%
    01:00 +15°C° 0 mm 2 mps 756 mmHg 75%
    02:00 +15°C° 0 mm 2 mps 756 mmHg 75%
    03:00 +15°C° 0 mm 2 mps 756 mmHg 78%
    04:00 +14°C° 0 mm 2 mps 755 mmHg 80%
    05:00 +13°C° 0 mm 2 mps 755 mmHg 83%
    06:00 +15°C° 0 mm 2 mps 755 mmHg 75%
    07:00 +17°C° 0 mm 2 mps 756 mmHg 68%
    08:00 +19°C° 0 mm 2 mps 756 mmHg 60%
    09:00 +21°C° 0 mm 2 mps 756 mmHg 54%
    10:00 +24°C° 0 mm 2 mps 756 mmHg 49%
    11:00 +26°C° 0 mm 2 mps 756 mmHg 43%
    12:00 +26°C° 0 mm 3 mps 755 mmHg 44%
    13:00 +26°C° 0 mm 3 mps 755 mmHg 45%
    14:00 +26°C° 0 mm 3 mps 755 mmHg 45%
    15:00 +25°C° 0 mm 3 mps 754 mmHg 49%
    16:00 +24°C° 0 mm 3 mps 754 mmHg 52%
    17:00 +22°C° 0 mm 3 mps 754 mmHg 56%
    18:00 +20°C° 0 mm 2 mps 754 mmHg 63%
    19:00 +18°C° 0 mm 2 mps 754 mmHg 71%
    20:00 +18°C° 0 mm 1 mps 754 mmHg 79%
    21:00 +16°C° 0 mm 2 mps 755 mmHg 81%
    22:00 +16°C° 0 mm 2 mps 755 mmHg 83%
    23:00 +15°C° 0 mm 2 mps 755 mmHg 85%

    Day after tomorrow, 21 January, Saturday

    Time Temperature Precipitation Wind Pressure Humidity
    00:00 +15°C° 0 mm 2 mps 755 mmHg 86%
    01:00 +14°C° 0 mm 3 mps 754 mmHg 88%
    02:00 +14°C° 0 mm 3 mps 754 mmHg 89%
    03:00 +14°C° 0 mm 2 mps 754 mmHg 89%
    04:00 +14°C° 0 mm 2 mps 753 mmHg 90%
    05:00 +13°C° 0 mm 2 mps 753 mmHg 91%
    06:00 +16°C° 0 mm 2 mps 754 mmHg 78%
    07:00 +20°C° 0 mm 1 mps 754 mmHg 66%
    08:00 +23°C° 0 mm 1 mps 754 mmHg 53%
    09:00 +26°C° 0 mm 1 mps 754 mmHg 47%
    10:00 +28°C° 0 mm 2 mps 754 mmHg 41%
    11:00 +30°C° 0 mm 2 mps 753 mmHg 35%
    12:00 +30°C° 0 mm 2 mps 753 mmHg 38%
    13:00 +29°C° 0 mm 3 mps 752 mmHg 41%
    14:00 +29°C° 0 mm 4 mps 752 mmHg 44%
    15:00 +27°C° 0 mm 4 mps 752 mmHg 50%
    16:00 +26°C° 0 mm 4 mps 752 mmHg 56%
    17:00 +23°C° 0 mm 4 mps 752 mmHg 62%
    18:00 +22°C° 0 mm 3 mps 752 mmHg 69%
    19:00 +20°C° 0 mm 3 mps 753 mmHg 76%
    20:00 +18°C° 0 mm 2 mps 753 mmHg 84%
    21:00 +18°C° 0 mm 2 mps 753 mmHg 87%
    22:00 +18°C° 0 mm 1 mps 753 mmHg 90%
    23:00 +16°C° 0 mm 1 mps 754 mmHg 94%

    22 January, Sunday

    Time Temperature Precipitation Wind Pressure Humidity
    00:00 +16°C° 0 mm 1 mps 753 mmHg 94%
    01:00 +16°C° 0 mm 1 mps 753 mmHg 94%
    02:00 +15°C° 0 mm 1 mps 752 mmHg 94%
    03:00 +15°C° 0 mm 1 mps 752 mmHg 94%
    04:00 +15°C° 0 mm 1 mps 752 mmHg 95%
    05:00 +15°C° 0 mm 2 mps 752 mmHg 95%
    06:00 +17°C° 0 mm 2 mps 752 mmHg 85%
    07:00 +19°C° 0 mm 2 mps 753 mmHg 76%
    08:00 +21°C° 0 mm 2 mps 753 mmHg 67%
    09:00 +22°C° 0 mm 3 mps 753 mmHg 63%
    10:00 +24°C° 0 mm 3 mps 753 mmHg 60%
    11:00 +25°C° 0 mm 4 mps 753 mmHg 57%
    12:00 +23°C° 0.1 mm 5 mps 753 mmHg 62%
    13:00 +22°C° 0.1 mm 5 mps 753 mmHg 67%
    14:00 +20°C° 0.1 mm 6 mps 753 mmHg 72%
    15:00 +20°C° 0 mm 6 mps 753 mmHg 70%
    16:00 +20°C° 0 mm 6 mps 753 mmHg 67%
    17:00 +19°C° 0 mm 6 mps 753 mmHg 65%
    18:00 +19°C° 0 mm 5 mps 754 mmHg 66%
    19:00 +17°C° 0 mm 5 mps 755 mmHg 67%
    20:00 +16°C° 0 mm 5 mps 755 mmHg 68%
    21:00 +16°C° 0 mm 5 mps 756 mmHg 71%
    22:00 +15°C° 0 mm 5 mps 756 mmHg 74%
    23:00 +15°C° 0 mm 5 mps 756 mmHg 77%

    23 January, Monday

    Time Temperature Precipitation Wind Pressure Humidity
    00:00 +14°C° 0 mm 5 mps 756 mmHg 78%
    01:00 +14°C° 0 mm 5 mps 756 mmHg 78%
    02:00 +14°C° 0 mm 4 mps 756 mmHg 79%
    03:00 +14°C° 0 mm 4 mps 756 mmHg 77%
    04:00 +14°C° 0 mm 5 mps 757 mmHg 75%
    05:00 +14°C° 0 mm 5 mps 757 mmHg 73%
    06:00 +15°C° 0 mm 5 mps 758 mmHg 67%
    07:00 +15°C° 0 mm 5 mps 758 mmHg 62%
    08:00 +16°C° 0 mm 5 mps 759 mmHg 57%
    09:00 +17°C° 0 mm 5 mps 759 mmHg 54%
    10:00 +19°C° 0 mm 5 mps 759 mmHg 52%
    11:00 +19°C° 0 mm 6 mps 759 mmHg 50%
    12:00 +20°C° 0 mm 6 mps 759 mmHg 49%
    13:00 +20°C° 0 mm 6 mps 759 mmHg 47%
    14:00 +21°C° 0 mm 6 mps 759 mmHg 46%
    15:00 +20°C° 0 mm 6 mps 759 mmHg 47%
    16:00 +20°C° 0 mm 6 mps 760 mmHg 48%
    17:00 +19°C° 0 mm 6 mps 760 mmHg 48%
    18:00 +17°C° 0 mm 5 mps 761 mmHg 54%
    19:00 +17°C° 0 mm 4 mps 761 mmHg 60%
    20:00 +14°C° 0 mm 3 mps 762 mmHg 66%
    21:00 +14°C° 0 mm 3 mps 762 mmHg 68%
    22:00 +13°C° 0 mm 3 mps 763 mmHg 71%
    23:00 +13°C° 0 mm 3 mps 763 mmHg 73%

    24 January, Tuesday

    Time Temperature Precipitation Wind Pressure Humidity
    00:00 +13°C° 0 mm 2 mps 763 mmHg 76%
    01:00 +13°C° 0 mm 2 mps 763 mmHg 78%
    02:00 +13°C° 0 mm 2 mps 763 mmHg 80%
    03:00 +13°C° 0 mm 2 mps 763 mmHg 80%
    04:00 +13°C° 0 mm 2 mps 763 mmHg 80%
    05:00 +13°C° 0 mm 2 mps 764 mmHg 81%
    06:00 +14°C° 0 mm 3 mps 764 mmHg 73%
    07:00 +16°C° 0 mm 3 mps 764 mmHg 66%
    08:00 +18°C° 0 mm 3 mps 765 mmHg 58%
    09:00 +20°C° 0 mm 4 mps 765 mmHg 54%
    10:00 +21°C° 0 mm 4 mps 765 mmHg 50%
    11:00 +22°C° 0 mm 4 mps 764 mmHg 47%
    12:00 +23°C° 0 mm 5 mps 764 mmHg 46%
    13:00 +23°C° 0 mm 5 mps 764 mmHg 46%
    14:00 +23°C° 0 mm 6 mps 764 mmHg 46%
    15:00 +23°C° 0 mm 6 mps 764 mmHg 49%
    16:00 +22°C° 0 mm 6 mps 764 mmHg 52%
    17:00 +21°C° 0 mm 7 mps 764 mmHg 54%
    18:00 +20°C° 0 mm 6 mps 764 mmHg 61%
    19:00 +17°C° 0 mm 6 mps 764 mmHg 67%
    20:00 +16°C° 0 mm 6 mps 765 mmHg 73%
    21:00 +16°C° 0 mm 6 mps 765 mmHg 75%
    22:00 +15°C° 0 mm 6 mps 765 mmHg 78%
    23:00 +15°C° 0 mm 6 mps 765 mmHg 81%
    Show more